Terminal Aerodrome Forecast
Issued by NWS

Home | Current Version | Previous Version | Text Only | Print | Product List | Glossary On
Versions: 1 2 3 4 5 6 7 8 9 10 11 12 13 14 15 16 17 18
000
FTUS42 KKEY 041500 AAA
TAFMTH
TAF AMD
KMTH 041500Z 0415/0512 11009G18KT P6SM FEW020=

USA.gov is the U.S. government's official web portal to all federal, state and local government web resources and services.